FW6376 Weather Reports


Display with metric or nautical units.
time (UTC)temp
F
wind
direction
speed
MPH
gust
MPH
rain 1hr
in
rain 24hr
in
rain mn
in
humidity
%
barometer
mb
20260503210009 49 338 0.0 11.0 0.00 0.01 0.00 35 1008.9
20260503204509 49 141 2.0 12.0 0.00 0.01 0.00 35 1008.9
20260503203001 51 257 3.0 11.0 0.00 0.01 0.00 33 1008.6
20260503201600 49 49 0.0 12.0 0.00 0.01 0.00 32 1008.6
20260503200059 50 155 3.0 10.0 0.00 0.01 0.00 31 1008.6
20260503194620 50 34 1.0 12.0 0.00 0.01 0.00 32 1008.6
20260503193058 50 80 1.0 11.0 0.00 0.01 0.00 30 1008.7
20260503191602 49 263 1.0 12.0 0.00 0.01 0.00 31 1008.7
20260503184557 50 315 2.0 8.0 0.00 0.04 0.00 30 1008.4
20260503183104 49 291 3.0 7.0 0.00 0.04 0.00 31 1008.7
20260503181552 49 355 2.0 10.0 0.00 0.04 0.00 32 1008.7
20260503180104 49 310 2.0 12.0 0.00 0.04 0.00 31 1008.6
20260503174550 49 11 1.0 12.0 0.00 0.08 0.00 31 1008.7
20260503173139 50 240 2.0 11.0 0.00 0.08 0.00 33 1008.4
20260503171549 50 220 1.0 6.0 0.00 0.08 0.00 34 1008.5
20260503120104 40 345 1.0 4.0 0.00 0.14 0.00 72 1010.2
20260503081543 37 285 0.0 0.0 0.00 0.18 0.00 81 1010.6
20260503071533 37 285 0.0 0.0 0.00 0.20 0.00 80 1010.9
20260503054521 37 285 0.0 0.0 0.00 0.23 0.00 81 1011.5
20260503053015 37 285 0.0 0.0 0.00 0.23 0.00 80 1011.7
20260503051510 37 285 0.0 0.0 0.00 0.23 0.00 80 1011.9
20260503050008 36 285 0.0 0.0 0.00 0.23 0.00 80 1012.1
20260503044510 36 285 0.0 0.0 0.00 0.23 0.00 79 1012.3
20260503043008 36 285 0.0 0.0 0.00 0.23 0.00 77 1012.4
20260503041503 36 285 0.0 0.0 0.00 0.23 0.00 75 1012.5
20260503040100 37 285 0.0 0.0 0.00 0.23 0.00 73 1012.6
20260503034559 38 285 0.0 0.0 0.00 0.23 0.23 72 1012.7
20260503033059 38 285 0.0 0.0 0.00 0.23 0.23 72 1012.7
20260503031610 39 285 0.0 0.0 0.00 0.23 0.23 72 1012.7
20260503030058 40 285 0.0 0.0 0.00 0.23 0.23 72 1012.9
20260503024604 41 285 0.0 0.0 0.00 0.23 0.23 71 1012.9
20260503023058 42 285 0.0 0.0 0.00 0.23 0.23 71 1013.0
20260503021557 42 285 0.0 0.0 0.00 0.23 0.23 71 1013.1
20260503020101 43 285 0.0 0.0 0.00 0.23 0.23 71 1013.2
20260503014559 43 285 0.0 0.0 0.00 0.23 0.23 70 1013.2
20260503013056 43 285 0.0 2.0 0.00 0.23 0.23 71 1013.1
20260503011606 44 284 0.0 0.0 0.00 0.23 0.23 72 1012.9
20260503010058 44 284 0.0 2.0 0.01 0.23 0.23 72 1012.9
20260503004555 44 284 0.0 2.0 0.01 0.23 0.23 71 1012.7
20260503003053 45 285 0.0 1.0 0.01 0.23 0.23 71 1012.5
20260503001555 45 285 0.0 0.0 0.01 0.23 0.23 71 1012.3
20260503000108 46 285 0.0 2.0 0.00 0.22 0.22 69 1012.1
20260502234552 47 281 0.0 3.0 0.00 0.22 0.22 67 1011.9
20260502233051 48 309 0.0 2.0 0.00 0.22 0.22 68 1011.7
20260502231614 49 281 0.0 1.0 0.00 0.22 0.22 69 1011.5
20260502230051 50 281 0.0 0.0 0.00 0.22 0.22 68 1011.2
20260502224557 50 281 0.0 0.0 0.00 0.22 0.22 65 1011.1
20260502223050 51 281 0.0 0.0 0.00 0.22 0.22 66 1011.0
20260502221553 51 281 0.0 0.0 0.00 0.22 0.22 62 1010.9
20260502220051 51 281 0.0 1.0 0.00 0.22 0.22 60 1010.8
20260502214549 51 248 0.0 2.0 0.00 0.22 0.22 58 1011.0
20260502213047 52 61 1.0 4.0 0.00 0.22 0.22 61 1011.0
20260502211547 51 86 0.0 3.0 0.00 0.22 0.22 61 1011.0